Regional Weather Roundup
Issued by NWS

Home | Current Version | Previous Version | Graphics & Text | Print | Product List | Glossary On
Versions: 1 2 3 4 5 6 7 8 9 10 11 12 13 14 15 16 17 18 19 20 21 22 23 24 25 26 27 28 29 30 31 32 33 34 35 36 37 38 39 40 41 42 43 44 45 46 47 48 49 50
000
ASUS45 KCYS 162310
RWRWY

WYOMING REGIONAL WEATHER ROUNDUP
NATIONAL WEATHER SERVICE CHEYENNE WY
500 PM MDT MON OCT 16 2017

NOTE:  "FAIR" INDICATES FEW OR NO CLOUDS BELOW 12,000 FEET
WITH NO SIGNIFICANT WEATHER AND/OR OBSTRUCTIONS TO VISIBILITY.

WYZ001-170000-
YELLOWSTONE NATIONAL PARK

CITY           SKY/WX    TMP DP  RH WIND       PRES   REMARKS
LK YELLOWSTONE   N/A     49  16  26 CALM      30.39F
W YELLOWSTONE  NOT AVBL

$$
WYZ002>013-054>058-071-098>099-170000-
NORTHERN WYOMING

CITY           SKY/WX    TMP DP  RH WIND       PRES   REMARKS
JACKSON        FAIR      57  21  24 SW8       30.35F
CODY           FAIR      65  25  22 SE12      30.19S
GREYBULL       FAIR      69  18  14 SW5       30.14F
WORLAND        FAIR      67  27  22 SE6       30.16F
SHERIDAN       FAIR      71  22  15 NW5       30.11S
BUFFALO        FAIR      69  16  13 N12       30.17S
GILLETTE       FAIR      69  23  17 NW13      30.13S
HULETT         FAIR      68  23  18 W8        30.13S
NEWCASTLE      FAIR      68  21  17 NW14      30.14R

$$
WYZ014>020-022>026-101>103-170000-
CENTRAL WYOMING

CITY           SKY/WX    TMP DP  RH WIND       PRES   REMARKS
BIG PINEY      FAIR      62  12  14 CALM      30.35F
PINEDALE       FAIR      61  12  15 NW9       30.36S
DUBOIS         FAIR      55   9  15 NW16G25   30.31S
LANDER         FAIR      65  24  21 S9        30.21F
RIVERTON       FAIR      63  29  27 E5        30.22F
CASPER         FAIR      67  14  13 W12       30.20F
DOUGLAS        FAIR      69  15  12 NW16      30.18F

$$
WYZ021-027>030-104>119-170000-
SOUTHERN WYOMING

CITY           SKY/WX    TMP DP  RH WIND       PRES   REMARKS
EVANSTON       FAIR      63   4   9 W16       30.40S
KEMMERER       FAIR      61   9  12 W15       30.39F
FORT BRIDGER   FAIR      66   3   8 W15G23    30.40S
ROCK SPRINGS   FAIR      63   0   8 W13       30.35F
DIXON          FAIR      66   6   9 SW9       30.38S
RAWLINS        FAIR      64   1   8 W14       30.32S
SARATOGA       FAIR      61   9  12 W13G21    30.36F
LARAMIE        FAIR      63  -4   6 W22G30    30.31S
CHEYENNE       FAIR      68   4   8 NW10      30.24S
TORRINGTON     FAIR      72  13  10 N14G21    30.13S
PINE BLUFFS    FAIR      70  12  11 N14       30.19S

$$



USA.gov is the U.S. government's official web portal to all federal, state and local government web resources and services.